Time,TemperatureF,DewpointF,PressureIn,WindDirection,WindDirectionDegrees,WindSpeedMPH,WindSpeedGustMPH,Humidity,HourlyPrecipIn,Conditions,Clouds,dailyrainin,SolarRadiationWatts/m^2,SoftwareType,DateUTC
2013-11-27 00:00:00,15.0,7.0,-100.00,NNW,337,9.0,-999.0,70,-99.99,,,-99.99,0.000000,,2013-11-27 06:00:00,
2013-11-27 00:42:00,15.0,7.0,-100.00,NNW,337,9.0,-999.0,70,-99.99,,,-99.99,0.000000,,2013-11-27 06:42:00,
2013-11-27 00:52:00,15.0,7.0,-100.00,NNW,337,9.0,-999.0,70,-99.99,,,-99.99,0.000000,,2013-11-27 06:52:00,
2013-11-27 03:00:00,17.0,11.0,-100.00,NNW,337,10.0,-999.0,78,-99.99,,,-99.99,0.000000,,2013-11-27 09:00:00,
2013-11-27 03:43:00,17.0,11.0,-100.00,NNW,337,10.0,-999.0,78,-99.99,,,-99.99,0.000000,,2013-11-27 09:43:00,
2013-11-27 03:54:00,17.0,11.0,-100.00,NNW,337,10.0,-999.0,78,-99.99,,,-99.99,0.000000,,2013-11-27 09:54:00,
2013-11-27 06:00:00,20.0,16.0,-100.00,NNW,337,9.0,-999.0,84,-99.99,,,-99.99,0.000000,,2013-11-27 12:00:00,
2013-11-27 06:42:00,20.0,16.0,-100.00,NNW,337,9.0,-999.0,84,-99.99,,,-99.99,0.000000,,2013-11-27 12:42:00,
2013-11-27 06:52:00,20.0,16.0,-100.00,NNW,337,9.0,-999.0,84,-99.99,,,-99.99,0.000000,,2013-11-27 12:52:00,
2013-11-27 09:00:00,21.0,16.0,-100.00,North,0,9.0,-999.0,80,-99.99,,,-99.99,77.720001,,2013-11-27 15:00:00,
2013-11-27 09:44:00,21.0,16.0,-100.00,North,0,9.0,-999.0,80,-99.99,,,-99.99,77.720001,,2013-11-27 15:44:00,
2013-11-27 09:53:00,21.0,16.0,-100.00,North,0,9.0,-999.0,80,-99.99,,,-99.99,77.720001,,2013-11-27 15:53:00,
2013-11-27 12:00:00,24.0,12.0,-100.00,North,0,10.0,-999.0,59,-99.99,,,-99.99,191.399994,,2013-11-27 18:00:00,
2013-11-27 12:43:00,24.0,12.0,-100.00,North,0,10.0,-999.0,59,-99.99,,,-99.99,191.399994,,2013-11-27 18:43:00,
2013-11-27 12:52:00,24.0,12.0,-100.00,North,0,10.0,-999.0,59,-99.99,,,-99.99,191.399994,,2013-11-27 18:52:00,
2013-11-27 15:00:00,25.0,9.0,-100.00,North,0,7.0,-999.0,51,-99.99,,,-99.99,80.040001,,2013-11-27 21:00:00,
2013-11-27 15:43:00,25.0,9.0,-100.00,North,0,7.0,-999.0,51,-99.99,,,-99.99,80.040001,,2013-11-27 21:43:00,
2013-11-27 15:53:00,25.0,9.0,-100.00,North,0,7.0,-999.0,51,-99.99,,,-99.99,80.040001,,2013-11-27 21:53:00,
2013-11-27 18:00:00,23.0,11.0,-100.00,North,0,5.0,-999.0,60,-99.99,,,-99.99,0.000000,,2013-11-28 00:00:00,
2013-11-27 18:42:00,23.0,11.0,-100.00,North,0,5.0,-999.0,60,-99.99,,,-99.99,0.000000,,2013-11-28 00:42:00,
2013-11-27 18:52:00,23.0,11.0,-100.00,North,0,5.0,-999.0,60,-99.99,,,-99.99,0.000000,,2013-11-28 00:52:00,
2013-11-27 21:00:00,22.0,12.0,-100.00,NNE,22,1.0,-999.0,66,-99.99,,,-99.99,0.000000,,2013-11-28 03:00:00,
2013-11-27 21:44:00,22.0,12.0,-100.00,NNE,22,1.0,-999.0,66,-99.99,,,-99.99,0.000000,,2013-11-28 03:44:00,
2013-11-27 21:53:00,22.0,12.0,-100.00,NNE,22,1.0,-999.0,66,-99.99,,,-99.99,0.000000,,2013-11-28 03:53:00,